[[{"header":{"parameterUnit":"m.s-1","parameterCategory":1,"la1":30.2991,"la2":30.254,"lo1":-89.0895,"lo2":-89.0444,"dy":0.0017,"dx":0.0017,"nx":28,"ny":28,"refTime":"2025-01-18T09:00:00:Z","depth":0,"parameterNumber":2,"parameterNumberName":"U-component_of_WINDS"},"data":[0,0,0,0,0,0,0,0,0,0,0,0,0,0,0,0,0,0,0,0,0,0,0,0,0,0,0,0,0,0,0,0,0,0,0,0,0,0,0,0,0,0,0,0,0,0,0,0,0,0,0,0,0,0,0,0,0,0,0.0079,0.0079,0,0.0048,0.0047,0.0047,0.007,0.0071,0.0072,0.0073,0.0039,0.0037,0.0035,0,0,0,0,0,0,0,0,0,0,0,0,0,0.0158,0.0157,0.0079,0.0079,0.0078,0.0048,0.0047,0.0047,0.007,0.0071,0.0073,0.0074,0.0039,0.0037,0.0035,0,0,0,0,0,0,0,0,0,0,0,0,0,0.0125,0.0156,0.0079,0.0086,0.0087,0.0048,0.0047,0.0047,0.007,0.0071,0.0073,0.0074,0.004,0.0037,0.0034,-0.0014,0,0,0.0026,0.0025,0,0,0,0,0,0,0,0,0.0127,0.0122,0.0086,0.0086,0.0086,0.0065,0.0063,0.0026,0.007,0.0076,0.0073,0.0075,0.0046,0.0043,0.0033,-0.0016,-0.0017,0.0026,0.0024,0.0023,0.0022,0,0,0,0,0,0,0,0.0129,0.0124,0.0067,0.0085,0.0085,0.0091,0.0088,0.0056,0.0053,0.0076,0.0077,0.0074,0.0046,0.0036,0.0033,-0.0018,0.0026,0.0023,0.0021,0.002,-0.0107,-0.0108,0,0,0,0,0,0,0.0131,0.0125,0.0068,0.0066,0.0111,0.0088,0.0085,0.007,0.0053,0.0052,0.0072,0.0075,0.004,0.0036,0.0031,-0.0026,0.0023,0.002,0.0018,-0.0105,-0.0107,-0.0109,0,0,0,0,0,0,0.0133,0.0126,0.0069,0.0096,0.0089,0.0085,0.0068,0.0068,0.0058,0.005,0.005,0.0062,0.0041,0.0035,-0.0002,-0.0027,0.0019,0.0016,-0.0103,-0.0105,-0.0108,-0.0142,0,0,0,0,0,0,0.0135,0.0126,0.0108,0.0095,0.0088,0.0036,0.0067,0.0067,0.0054,0.0056,0.0041,0.004,0.0042,0.0002,-0.0005,-0.003,0.0014,-0.0101,-0.0104,-0.0107,-0.0139,-0.0145,-0.0151,0,0,0,0,0,0.0138,0.0099,0.0107,0.01,0.0065,0.0034,0.003,0.0033,0.0051,0.0033,0.0028,0.004,-0.0023,-0.0002,-0.001,-0.0036,-0.0099,-0.0103,-0.0107,-0.0136,-0.0144,-0.0151,0,0,0,0,0,0,0.0107,0.0097,0.0106,0.0062,0.0049,0.0038,0.0015,0.0025,0.0005,0.0009,0.0014,0.001,-0.0029,-0.0036,-0.0013,-0.0083,-0.0058,-0.0064,-0.0078,-0.0085,-0.0091,-0.009,0.0012,0,0,0,0,0,0.0095,0.0072,0.0064,0.0026,0.0019,0.0018,0.0005,0.0009,-0.0004,-0.001,-0.0018,-0.0032,-0.0055,-0.007,-0.0092,-0.0139,-0.0142,-0.016,-0.0166,-0.0171,-0.0177,-0.0201,-0.021,-0.0121,-0.0121,-0.0121,0,0,0.007,0.0062,0.0046,0.002,0.001,-0.0015,0.0013,-0.0014,-0.0033,-0.0015,-0.0051,-0.0056,-0.0072,-0.0114,-0.0133,-0.0121,-0.0201,-0.0176,-0.018,-0.0183,-0.0206,-0.0214,-0.0222,-0.0124,-0.0123,-0.0123,0,0,0.0012,0.0003,-0.0029,-0.0039,-0.0053,-0.0053,-0.0061,-0.0072,-0.0075,-0.0111,-0.0097,-0.0119,-0.0159,-0.017,-0.0181,-0.0241,-0.023,-0.0248,-0.0281,-0.0305,-0.0312,-0.0318,-0.034,-0.0348,-0.0253,-0.0253,-0.0253,0,-0.0018,-0.0054,-0.0047,-0.0075,-0.0088,-0.007,-0.0103,-0.0113,-0.0134,-0.0143,-0.0128,-0.0176,-0.0186,-0.023,-0.0245,-0.0254,-0.0263,-0.0247,-0.0311,-0.0317,-0.0323,-0.0344,-0.0352,-0.0255,-0.0255,-0.0254,-0.0254,0,-0.009,-0.0115,-0.014,-0.0159,-0.0174,-0.0204,-0.0202,-0.0217,-0.0211,-0.0212,-0.0249,-0.0258,-0.0281,-0.0291,-0.0286,-0.0335,-0.0327,-0.0312,-0.0287,-0.0334,-0.0353,-0.0361,-0.0258,-0.0257,-0.0257,-0.0256,0,0,-0.0172,-0.0185,-0.0194,-0.0202,-0.0215,-0.0235,-0.0264,-0.0285,-0.0299,-0.0313,-0.0337,-0.037,-0.0356,-0.0368,-0.0364,-0.0385,-0.0431,-0.0367,-0.0367,-0.0379,-0.0486,-0.0498,-0.0507,-0.0423,-0.0425,-0.0426,-0.0485,0,-0.0231,-0.0282,-0.0275,-0.0323,-0.0346,-0.0329,-0.0354,-0.0365,-0.0367,-0.0387,-0.0388,-0.0412,-0.0391,-0.0398,-0.0418,-0.0422,-0.0453,-0.0417,-0.0447,-0.0448,-0.0445,-0.0517,-0.053,-0.0585,-0.0492,-0.0493,-0.0494,0,-0.0308,-0.0324,-0.0374,-0.0383,-0.0392,-0.0415,-0.0433,-0.0452,-0.0464,-0.0463,-0.0476,-0.0467,-0.0496,-0.0469,-0.0509,-0.0484,-0.0496,-0.0499,-0.0501,-0.0505,-0.0475,-0.0524,-0.0603,-0.0612,-0.0506,-0.0505,-0.0504,0,-0.0363,-0.0397,-0.0431,-0.0439,-0.0449,-0.0465,-0.0471,-0.048,-0.0493,-0.0509,-0.0517,-0.0536,-0.0547,-0.0562,-0.0558,-0.0539,-0.0599,-0.0572,-0.06,-0.06,-0.0615,-0.0615,-0.0698,-0.0621,-0.062,-0.062,-0.062,0,-0.0432,-0.0463,-0.0456,-0.0477,-0.0512,-0.0503,-0.0538,-0.0541,-0.055,-0.0571,-0.0557,-0.0578,-0.0571,-0.0591,-0.0588,-0.0621,-0.0626,-0.0627,-0.0626,-0.0629,-0.0629,-0.0638,-0.0635,-0.0622,-0.0622,-0.0622,-0.0621,0,-0.05,-0.0496,-0.0533,-0.0539,-0.0541,-0.0566,-0.0571,-0.0591,-0.0591,-0.0618,-0.0624,-0.0623,-0.0646,-0.0643,-0.0669,-0.0667,-0.0709,-0.0703,-0.0705,-0.0704,-0.0733,-0.073,-0.0826,-0.0838,-0.0751,-0.0752,-0.0753,0,-0.0545,-0.0568,-0.0576,-0.0589,-0.0595,-0.0616,-0.0629,-0.062,-0.0634,-0.0647,-0.0666,-0.0687,-0.0704,-0.0741,-0.0743,-0.0762,-0.0757,-0.0789,-0.076,-0.0762,-0.0759,-0.0758,-0.076,-0.0795,-0.0796,-0.0797,-0.0798,0,-0.0624,-0.0621,-0.0639,-0.0655,-0.067,-0.0683,-0.0695,-0.0707,-0.0699,-0.0715,-0.0737,-0.075,-0.0775,-0.0797,-0.0814,-0.082,-0.0808,-0.0806,-0.0814,-0.0818,-0.0819,-0.082,-0.0722,-0.0805,-0.0804,-0.0804,-0.0803,-0.0803,-0.0683,-0.0703,-0.0711,-0.0731,-0.0739,-0.0749,-0.0768,-0.0769,-0.0787,-0.0807,-0.08,-0.0826,-0.0835,-0.0857,-0.0864,-0.0884,-0.0873,-0.0884,-0.0887,-0.089,-0.0894,-0.0814,-0.0887,-0.0887,-0.0887,-0.0887,-0.0887,0,-0.0762,-0.0766,-0.0785,-0.0801,-0.0816,-0.0802,-0.0813,-0.0828,-0.085,-0.0859,-0.0875,-0.0901,-0.092,-0.0923,-0.0942,-0.0957,-0.0952,-0.0962,-0.0962,-0.0963,-0.0903,-0.0895,-0.0966,-0.0966,-0.0966,-0.0966,-0.0966,-0.0966,-0.0806,-0.0839,-0.0836,-0.0872,-0.0875,-0.09,-0.0908,-0.0917,-0.0924,-0.0953,-0.0969,-0.097,-0.0976,-0.0995,-0.1013,-0.1013,-0.1021,-0.1033,-0.1032,-0.0976,-0.0968,-0.096,-0.0953,-0.1035,-0.1035,-0.1091,-0.1091,-0.1092]},{"header":{"parameterUnit":"m.s-1","parameterCategory":1,"la1":30.2991,"la2":30.254,"lo1":-89.0895,"lo2":-89.0444,"dy":0.0017,"dx":0.0017,"nx":28,"ny":28,"refTime":"2025-01-18T09:00:00:Z","depth":0,"parameterNumber":3,"parameterNumberName":"V-component_of_WINDS"},"data":[0,0,0,0,0,0,0,0,0,0,0,0,0,0,0,0,0,0,0,0,0,0,0,0,0,0,0,0,0,0,0,0,0,0,0,0,0,0,0,0,0,0,0,0,0,0,0,0,0,0,0,0,0,0,0,0,0,0,-7.6892,-7.6894,0,-7.7037,-7.7039,-7.704,-7.692,-7.6915,-7.691,-7.6905,-7.7048,-7.7056,-7.7064,0,0,0,0,0,0,0,0,0,0,0,0,0,-7.6507,-7.6514,-7.6892,-7.6894,-7.6896,-7.7037,-7.7039,-7.7041,-7.6921,-7.6914,-7.6908,-7.6903,-7.7045,-7.7055,-7.7065,0,0,0,0,0,0,0,0,0,0,0,0,0,-7.6665,-7.6517,-7.6892,-7.6853,-7.6851,-7.7036,-7.7039,-7.7041,-7.6922,-7.6914,-7.6907,-7.69,-7.7042,-7.7054,-7.7067,-7.7296,0,0,-7.7106,-7.7111,0,0,0,0,0,0,0,0,-7.6656,-7.6679,-7.6857,-7.6856,-7.6854,-7.6953,-7.6955,-7.7126,-7.6924,-7.6895,-7.6905,-7.6896,-7.7022,-7.7036,-7.7079,-7.7303,-7.7309,-7.7107,-7.7114,-7.712,-7.7123,0,0,0,0,0,0,0,-7.6645,-7.6672,-7.6949,-7.686,-7.6858,-7.6827,-7.6841,-7.6987,-7.6999,-7.6897,-7.6888,-7.6907,-7.702,-7.7067,-7.7082,-7.7311,-7.7106,-7.7118,-7.7126,-7.713,-7.7728,-7.7736,0,0,0,0,0,0,-7.6639,-7.6664,-7.6945,-7.6954,-7.6735,-7.684,-7.6856,-7.6929,-7.6997,-7.7,-7.6914,-7.6901,-7.7049,-7.7067,-7.7086,-7.7359,-7.712,-7.7132,-7.7139,-7.772,-7.773,-7.7739,0,0,0,0,0,0,-7.6631,-7.6665,-7.6939,-7.6807,-7.6839,-7.6854,-7.6937,-7.6935,-7.6983,-7.701,-7.7011,-7.6961,-7.7044,-7.7068,-7.7245,-7.7362,-7.7137,-7.7149,-7.7711,-7.7723,-7.7735,-7.7907,0,0,0,0,0,0,-7.6621,-7.6663,-7.6752,-7.681,-7.6847,-7.7098,-7.6945,-7.6944,-7.7006,-7.6991,-7.7054,-7.7057,-7.704,-7.7227,-7.7258,-7.7376,-7.7159,-7.77,-7.7716,-7.7731,-7.7891,-7.7924,-7.7952,0,0,0,0,0,-7.6607,-7.6794,-7.6757,-7.6792,-7.6958,-7.7105,-7.7125,-7.7103,-7.7016,-7.7104,-7.7121,-7.7055,-7.7344,-7.7246,-7.728,-7.7403,-7.7693,-7.7712,-7.773,-7.7877,-7.7917,-7.7951,0,0,0,0,0,0,-7.6748,-7.6801,-7.6761,-7.6972,-7.7035,-7.7084,-7.7195,-7.7147,-7.7235,-7.7217,-7.7184,-7.7199,-7.7385,-7.7411,-7.7301,-7.7628,-7.7504,-7.753,-7.7605,-7.7643,-7.7673,-7.7663,-7.717,0,0,0,0,0,-7.6804,-7.692,-7.6959,-7.7141,-7.7175,-7.718,-7.7243,-7.7221,-7.7284,-7.7309,-7.7339,-7.7401,-7.7506,-7.7576,-7.7673,-7.7894,-7.7905,-7.7995,-7.8026,-7.805,-7.8074,-7.8191,-7.8231,-7.78,-7.78,-7.78,0,0,-7.692,-7.6963,-7.7038,-7.7171,-7.7217,-7.7336,-7.7203,-7.7335,-7.7423,-7.7328,-7.7498,-7.7522,-7.7589,-7.7788,-7.7877,-7.7816,-7.8195,-7.8074,-7.8094,-7.8104,-7.8214,-7.8255,-7.8291,-7.7813,-7.781,-7.7808,0,0,-7.7193,-7.7238,-7.7394,-7.7443,-7.7516,-7.7518,-7.7555,-7.7612,-7.7625,-7.7794,-7.7726,-7.7828,-7.801,-7.8061,-7.811,-7.8401,-7.8343,-7.8434,-7.8593,-7.8708,-7.8742,-7.8772,-7.8875,-7.8913,-7.8456,-7.8457,-7.8457,0,-7.7328,-7.7507,-7.748,-7.7618,-7.7677,-7.7599,-7.7756,-7.7805,-7.7905,-7.7947,-7.7877,-7.8103,-7.8142,-7.8352,-7.8423,-7.8466,-7.8507,-7.8427,-7.8739,-7.8769,-7.8796,-7.8895,-7.8934,-7.8467,-7.8466,-7.8465,-7.8464,0,-7.7668,-7.7793,-7.7911,-7.8011,-7.8084,-7.8231,-7.8225,-7.8301,-7.8272,-7.8281,-7.8453,-7.8498,-7.8604,-7.8651,-7.8624,-7.8858,-7.8817,-7.8744,-7.8619,-7.8849,-7.894,-7.8978,-7.8483,-7.8479,-7.8476,-7.8473,0,0,-7.8034,-7.8118,-7.8162,-7.8206,-7.828,-7.8375,-7.8517,-7.8622,-7.8688,-7.8758,-7.8876,-7.9031,-7.8964,-7.902,-7.8997,-7.9098,-7.9325,-7.9012,-7.9013,-7.9069,-7.9584,-7.9639,-7.9683,-7.9287,-7.9294,-7.93,-7.9578,0,-7.831,-7.856,-7.854,-7.8775,-7.889,-7.8816,-7.894,-7.8997,-7.9009,-7.9106,-7.9117,-7.9228,-7.9131,-7.9165,-7.9261,-7.9277,-7.9428,-7.9257,-7.9394,-7.94,-7.9381,-7.9731,-7.979,-8.0051,-7.9614,-7.962,-7.9625,0,-7.8666,-7.8751,-7.8998,-7.9054,-7.9101,-7.9213,-7.9307,-7.9401,-7.9464,-7.9465,-7.9528,-7.9488,-7.9629,-7.95,-7.9693,-7.9577,-7.9632,-7.9648,-7.9658,-7.967,-7.9527,-7.9753,-8.0134,-8.0173,-7.9681,-7.9676,-7.9672,0,-7.8908,-7.9084,-7.9255,-7.9295,-7.9364,-7.9444,-7.9477,-7.9532,-7.9596,-7.9677,-7.9718,-7.9814,-7.9867,-7.9941,-7.9927,-7.9835,-8.0124,-7.9994,-8.0127,-8.0128,-8.0192,-8.0188,-8.0587,-8.0228,-8.0227,-8.0226,-8.0225,0,-7.9218,-7.9372,-7.9365,-7.947,-7.9639,-7.9614,-7.9782,-7.9804,-7.9855,-7.9961,-7.9902,-8.0003,-7.9978,-8.0078,-8.0067,-8.0228,-8.0252,-8.0256,-8.0252,-8.0262,-8.0262,-8.0298,-8.0279,-8.0237,-8.0234,-8.0232,-8.0231,0,-7.9518,-7.9519,-7.97,-7.9751,-7.9767,-7.989,-7.9933,-8.0031,-8.0037,-8.0173,-8.0203,-8.0213,-8.0327,-8.032,-8.0448,-8.0441,-8.064,-8.0614,-8.062,-8.0614,-8.0748,-8.0736,-8.1185,-8.1242,-8.0845,-8.0849,-8.0852,0,-7.9716,-7.9833,-7.9897,-7.9965,-8.0003,-8.0113,-8.0179,-8.0157,-8.0227,-8.0307,-8.0396,-8.0504,-8.059,-8.0776,-8.0793,-8.089,-8.0866,-8.1016,-8.088,-8.0887,-8.0868,-8.0862,-8.0873,-8.1043,-8.1048,-8.1051,-8.1054,0,-8.0068,-8.0062,-8.016,-8.0258,-8.0338,-8.0413,-8.0482,-8.0541,-8.0526,-8.0607,-8.0724,-8.0791,-8.0923,-8.1031,-8.1124,-8.1154,-8.1103,-8.1097,-8.1133,-8.1145,-8.1144,-8.1146,-8.0693,-8.1087,-8.1084,-8.1081,-8.108,-8.1078,-8.0322,-8.0423,-8.0484,-8.0594,-8.0644,-8.0709,-8.0804,-8.0823,-8.0921,-8.1027,-8.1008,-8.1139,-8.1197,-8.1316,-8.1356,-8.1456,-8.1402,-8.1454,-8.1468,-8.1481,-8.1496,-8.1128,-8.1473,-8.1472,-8.1471,-8.147,-8.147,0,-8.0671,-8.0706,-8.0808,-8.0907,-8.0993,-8.0938,-8.1011,-8.1087,-8.1203,-8.1263,-8.1349,-8.1482,-8.1587,-8.1613,-8.1712,-8.1788,-8.1766,-8.1815,-8.1809,-8.1817,-8.1539,-8.1498,-8.183,-8.183,-8.183,-8.183,-8.183,-8.183,-8.0862,-8.1029,-8.1031,-8.1222,-8.1255,-8.1384,-8.1431,-8.1491,-8.1538,-8.169,-8.1778,-8.1794,-8.184,-8.1942,-8.2035,-8.2039,-8.2079,-8.2137,-8.2132,-8.1872,-8.1836,-8.1802,-8.1763,-8.2146,-8.2146,-8.2401,-8.2404,-8.2405]}]]